Hourly Data Report for May 24, 2021

MIRAMICHI RCS
NEW BRUNSWICK
Current Station Operator: ECCC - MSC

47°00'34.000" N
65°27'54.000" W
33.00 m
8100989
71744
ACQ

Download Data

Hourly Data (May 2021)
Hourly Data Report for May 24, 2021
TIME
LST
Temp Definition
°C
Dew Point Definition
°C
Rel Hum Definition
%
Precip. Amount Definition
mm

Wind Dir Definition
10's deg

Wind Spd Definition
km/h
Visibility Definition
km
Stn Press Definition
kPa
Hmdx Definition


Wind Chill Definition


Weather Definition


00:00 5.8 -0.9 62 LegendMM 35 6   101.49     LegendNANA
01:00 4.6 -1.8 63 LegendMM 33 4   101.52     LegendNANA
02:00 3.9 -1.9 66 LegendMM 33 4   101.55     LegendNANA
03:00 3.1 -2.4 67 LegendMM 31 7   101.63     LegendNANA
04:00 1.7 -2.1 76 LegendMM 30 7   101.69     LegendNANA
05:00 2.8 -2.6 68 LegendMM 30 8   101.74     LegendNANA
06:00 4.2 -3.1 59 LegendMM 31 9   101.81     LegendNANA
07:00 6.8 -2.7 51 LegendMM 29 8   101.87     LegendNANA
08:00 9.1 -3.1 42 LegendMM 32 9   101.93     LegendNANA
09:00 10.0 -4.7 35 LegendMM 32 10   101.94     LegendNANA
10:00 11.9 -3.4 34 LegendMM 33 10   101.90     LegendNANA
11:00 13.2 -3.5 31 LegendMM 31 10   101.86     LegendNANA
12:00 14.4 -4.2 27 LegendMM 31 13   101.80     LegendNANA
13:00 14.9 -4.7 25 LegendMM 32 18   101.75     LegendNANA
14:00 15.5 -4.2 25 LegendMM 29 11   101.66     LegendNANA
15:00 16.6 -5.4 22 LegendMM 30 6   101.58     LegendNANA
16:00 17.5 -4.0 23 LegendMM 28 13   101.53     LegendNANA
17:00 17.6 -4.4 22 LegendMM 26 10   101.47     LegendNANA
18:00 17.1 -3.4 24 LegendMM 24 17   101.44     LegendNANA
19:00 16.3 -2.7 27 LegendMM 25 15   101.45     LegendNANA
20:00 14.3 -1.8 33 LegendMM 25 8   101.45     LegendNANA
21:00 10.9 1.0 51 LegendMM 22 3   101.46     LegendNANA
22:00 10.2 -0.2 48 LegendMM 21 5   101.40     LegendNANA
23:00 9.7 1.1 55 LegendMM 22 18   101.39     LegendNANA

Notes on Data Quality.

Legend

  • E = Estimated
  • M = Missing
  • NA = Not Available*
  • [empty] = Indicates an unobserved value
Date modified: